Tracking 35331 objects as of 17-Sep-2026
HD Live streaming from Space Station
objects crossing your sky now

STARLINK-38188

Track STARLINK-38188 now!
10-day predictions
STARLINK-38188 is classified as:


NORAD ID: 100233
Int'l Code: 2026-177W
Launch date: August 4, 2026
Source: United States (US)
Launch site: AIR FORCE WESTERN TEST RANGE (AFWTR)
Your satellite tracking list
Your tracking list is empty




NASA's NSSDC Master Catalog

Two Line Element Set (TLE):
1 A0233U 26177W   26258.60825505  .00036567  00000-0  67028-3 0  9998
2 A0233  97.2837 309.3667 0000646 100.5141 259.6183 15.49215180  6600
Source of the keplerian elements: AFSPC